[[{"header":{"parameterUnit":"m.s-1","parameterCategory":1,"la1":30.2991,"la2":30.254,"lo1":-89.0895,"lo2":-89.0444,"dy":0.0017,"dx":0.0017,"nx":28,"ny":28,"refTime":"2023-08-02T03:00:00:Z","depth":0,"parameterNumber":2,"parameterNumberName":"U-component_of_WINDS"},"data":[0,0,0,0,0,0,0,0,0,0,0,0,0,0,0,0,0,0,0,0,0,0,0,0,0,0,0,0,0,0,0,0,0,0,0,0,0,0,0,0,0,0,0,0,0,0,0,0,0,0,0,0,0,0,0,0,0,0,1.5517,1.5519,0,1.5651,1.5652,1.5654,1.5696,1.5695,1.5695,1.5694,1.5828,1.5832,1.5836,0,0,0,0,0,0,0,0,0,0,0,0,0,1.5296,1.53,1.5517,1.5519,1.5521,1.5651,1.5653,1.5654,1.5696,1.5695,1.5694,1.5694,1.5827,1.5832,1.5837,0,0,0,0,0,0,0,0,0,0,0,0,0,1.5407,1.5301,1.5517,1.5557,1.5562,1.565,1.5653,1.5655,1.5696,1.5695,1.5694,1.5693,1.5825,1.5831,1.5837,1.5894,0,0,1.5856,1.5859,0,0,0,0,0,0,0,0,1.5401,1.5415,1.555,1.5555,1.556,1.5656,1.5624,1.5735,1.5696,1.5645,1.5694,1.5693,1.5771,1.5782,1.5809,1.5901,1.5906,1.5857,1.5861,1.5863,1.5865,0,0,0,0,0,0,0,1.5393,1.541,1.557,1.5551,1.5558,1.5568,1.5582,1.5645,1.5712,1.5649,1.5653,1.5668,1.5774,1.5803,1.5812,1.5908,1.5857,1.5862,1.5866,1.5868,1.6054,1.6055,0,0,0,0,0,0,1.5379,1.5403,1.5566,1.5574,1.5477,1.5572,1.5589,1.5626,1.5711,1.5723,1.5669,1.567,1.5793,1.5805,1.5817,1.589,1.5863,1.5869,1.5873,1.6053,1.6054,1.6056,0,0,0,0,0,0,1.5374,1.5393,1.556,1.549,1.5512,1.5577,1.5619,1.5629,1.5658,1.5726,1.5738,1.5686,1.5792,1.5808,1.5875,1.5895,1.5872,1.5877,1.6051,1.6053,1.6055,1.6034,0,0,0,0,0,0,1.5367,1.5391,1.5414,1.549,1.5515,1.5617,1.562,1.5632,1.5669,1.5671,1.5745,1.5757,1.5793,1.5866,1.5881,1.5903,1.5882,1.605,1.6052,1.6054,1.6034,1.6035,1.6037,0,0,0,0,0,1.5359,1.5402,1.5415,1.5434,1.5545,1.5618,1.5632,1.5674,1.567,1.5693,1.5737,1.5754,1.589,1.5872,1.589,1.5914,1.6049,1.6052,1.6054,1.6033,1.6035,1.6037,0,0,0,0,0,0,1.5325,1.5412,1.5427,1.5496,1.5549,1.5625,1.5655,1.5675,1.5729,1.5729,1.5777,1.5794,1.5857,1.5892,1.587,1.5974,1.597,1.5977,1.5948,1.595,1.5952,1.5941,1.5888,0,0,0,0,0,1.5326,1.5378,1.5451,1.5505,1.5531,1.5588,1.5621,1.5649,1.5706,1.5728,1.5777,1.583,1.5885,1.592,1.5974,1.604,1.6056,1.6065,1.6066,1.6067,1.6072,1.6109,1.6113,1.6064,1.6064,1.6064,0,0,1.5327,1.5381,1.5411,1.5499,1.5544,1.5596,1.5607,1.5662,1.5701,1.5736,1.5802,1.584,1.5903,1.5969,1.6,1.6,1.6089,1.6071,1.6071,1.6075,1.6112,1.6117,1.6121,1.6066,1.6066,1.6066,0,0,1.5356,1.5403,1.5452,1.5497,1.5565,1.5603,1.5615,1.5688,1.5714,1.5782,1.5809,1.5856,1.595,1.5994,1.6028,1.6076,1.6093,1.6092,1.6099,1.6135,1.6139,1.6142,1.6158,1.6163,1.6096,1.6096,1.6096,0,1.5348,1.5429,1.5475,1.5529,1.5567,1.5603,1.5653,1.5694,1.5775,1.58,1.58,1.5918,1.5963,1.604,1.6052,1.6079,1.6093,1.6083,1.6135,1.6139,1.6143,1.6158,1.6164,1.6096,1.6096,1.6096,1.6096,0,1.5417,1.5472,1.5504,1.5583,1.5625,1.5676,1.5729,1.5766,1.5791,1.5828,1.5897,1.5952,1.6018,1.6039,1.6063,1.612,1.6117,1.6125,1.6122,1.6146,1.6161,1.6168,1.6095,1.6095,1.6095,1.6095,0,0,1.5426,1.5531,1.5541,1.5578,1.5656,1.5699,1.5753,1.5819,1.5849,1.5904,1.5949,1.6029,1.6037,1.6076,1.6105,1.6137,1.617,1.6141,1.6143,1.6143,1.6234,1.6227,1.6233,1.6182,1.6184,1.6185,1.6229,0,1.5464,1.5561,1.5605,1.5682,1.5734,1.577,1.5816,1.5869,1.5906,1.5955,1.5996,1.6051,1.6058,1.6082,1.6114,1.6158,1.6188,1.6156,1.6224,1.6226,1.6205,1.6241,1.6234,1.6272,1.6235,1.6236,1.6237,0,1.5521,1.5577,1.566,1.5733,1.5756,1.5797,1.5861,1.5908,1.5968,1.5993,1.6037,1.6066,1.6123,1.6118,1.6196,1.6173,1.6204,1.623,1.6233,1.6239,1.6231,1.6248,1.6286,1.6291,1.6247,1.6246,1.6246,0,1.5518,1.5615,1.5677,1.5707,1.5794,1.5821,1.5858,1.5918,1.5955,1.6011,1.6035,1.6097,1.613,1.6177,1.6221,1.6214,1.6296,1.6294,1.6317,1.6316,1.6331,1.6329,1.6373,1.6353,1.6353,1.6353,1.6353,0,1.5555,1.5604,1.5677,1.5715,1.5771,1.5821,1.5874,1.5914,1.5967,1.6013,1.6048,1.609,1.6147,1.6196,1.6231,1.6291,1.6306,1.6327,1.6335,1.6323,1.632,1.6342,1.634,1.6355,1.6354,1.6354,1.6354,0,1.556,1.5611,1.5681,1.5758,1.5778,1.5816,1.5881,1.5919,1.5959,1.6017,1.6033,1.6095,1.6155,1.6204,1.6283,1.6306,1.6368,1.6379,1.6348,1.6352,1.6372,1.6369,1.643,1.644,1.6414,1.6415,1.6415,0,1.558,1.5618,1.5699,1.5733,1.577,1.5824,1.5862,1.5913,1.5951,1.6024,1.6053,1.6116,1.6168,1.6262,1.6314,1.6374,1.6385,1.6403,1.6394,1.6381,1.6384,1.6381,1.6385,1.6403,1.6403,1.6403,1.6403,0,1.5608,1.5632,1.5687,1.575,1.5795,1.5847,1.59,1.5926,1.5986,1.6027,1.609,1.6131,1.6211,1.6273,1.6339,1.6376,1.6399,1.6406,1.6414,1.6401,1.6381,1.6391,1.6348,1.6403,1.6403,1.6403,1.6403,1.6403,1.5621,1.5657,1.572,1.5779,1.5825,1.5874,1.5914,1.5959,1.6012,1.6082,1.6109,1.6172,1.6232,1.6323,1.6361,1.6411,1.6414,1.6426,1.6429,1.6431,1.6429,1.6374,1.6424,1.6424,1.6424,1.6424,1.6424,0,1.5651,1.5693,1.5748,1.5821,1.5868,1.5888,1.5948,1.5985,1.6041,1.6095,1.6147,1.6218,1.6279,1.6335,1.6398,1.6427,1.644,1.6442,1.644,1.6448,1.6423,1.6409,1.6431,1.6431,1.6431,1.6431,1.6431,1.6431,1.5672,1.5734,1.5765,1.585,1.5892,1.5956,1.5988,1.6033,1.6077,1.6155,1.6206,1.6243,1.6299,1.6366,1.6422,1.6437,1.6458,1.6458,1.6476,1.6451,1.645,1.6448,1.6435,1.6462,1.6462,1.6496,1.6496,1.6496]},{"header":{"parameterUnit":"m.s-1","parameterCategory":1,"la1":30.2991,"la2":30.254,"lo1":-89.0895,"lo2":-89.0444,"dy":0.0017,"dx":0.0017,"nx":28,"ny":28,"refTime":"2023-08-02T03:00:00:Z","depth":0,"parameterNumber":3,"parameterNumberName":"V-component_of_WINDS"},"data":[0,0,0,0,0,0,0,0,0,0,0,0,0,0,0,0,0,0,0,0,0,0,0,0,0,0,0,0,0,0,0,0,0,0,0,0,0,0,0,0,0,0,0,0,0,0,0,0,0,0,0,0,0,0,0,0,0,0,1.0639,1.0638,0,1.0558,1.0557,1.0556,1.0501,1.05,1.05,1.05,1.0413,1.0411,1.0409,0,0,0,0,0,0,0,0,0,0,0,0,0,1.0742,1.074,1.0639,1.0638,1.0637,1.0558,1.0557,1.0556,1.0501,1.05,1.05,1.05,1.0413,1.0411,1.0409,0,0,0,0,0,0,0,0,0,0,0,0,0,1.0683,1.074,1.0639,1.06,1.0596,1.0558,1.0557,1.0555,1.0501,1.05,1.05,1.0499,1.0414,1.0411,1.0408,1.0401,0,0,1.0399,1.0398,0,0,0,0,0,0,0,0,1.0686,1.0679,1.0607,1.0603,1.0598,1.0539,1.0561,1.0504,1.0501,1.0537,1.05,1.0499,1.0455,1.0448,1.0434,1.0397,1.0394,1.0399,1.0397,1.0396,1.0395,0,0,0,0,0,0,0,1.069,1.0682,1.0606,1.0606,1.06,1.0585,1.0576,1.055,1.05,1.0534,1.053,1.0521,1.0452,1.0437,1.0432,1.0392,1.0399,1.0396,1.0395,1.0393,1.0344,1.0345,0,0,0,0,0,0,1.0701,1.0686,1.0609,1.0604,1.0642,1.0584,1.0574,1.0558,1.05,1.0491,1.0522,1.0519,1.0443,1.0435,1.0429,1.0416,1.0396,1.0393,1.0392,1.0344,1.0344,1.0345,0,0,0,0,0,0,1.0703,1.0695,1.0612,1.0644,1.0632,1.0583,1.0566,1.0557,1.0542,1.0491,1.0481,1.0516,1.0442,1.0433,1.0409,1.0412,1.0392,1.0389,1.0343,1.0344,1.0345,1.0392,0,0,0,0,0,0,1.0707,1.0696,1.0694,1.0644,1.0631,1.0595,1.0566,1.0556,1.0538,1.0533,1.0483,1.0474,1.0441,1.0413,1.0406,1.0408,1.0387,1.0343,1.0344,1.0344,1.039,1.0394,1.0398,0,0,0,0,0,1.071,1.071,1.0694,1.0685,1.0627,1.0596,1.0588,1.0551,1.0538,1.0535,1.0502,1.0476,1.0413,1.0411,1.0402,1.0404,1.0342,1.0343,1.0344,1.0388,1.0393,1.0398,0,0,0,0,0,0,1.076,1.0703,1.0685,1.0668,1.0637,1.0587,1.0581,1.0558,1.0529,1.0526,1.0479,1.0468,1.0449,1.0424,1.0422,1.0393,1.0374,1.0374,1.0411,1.0415,1.0419,1.0426,1.0384,0,0,0,0,0,1.0769,1.075,1.07,1.069,1.0676,1.0631,1.0616,1.059,1.0556,1.0542,1.0507,1.0474,1.0446,1.0429,1.0401,1.0386,1.0373,1.0382,1.0386,1.039,1.0389,1.0378,1.0381,1.0348,1.0348,1.0348,0,0,1.0788,1.0754,1.0744,1.0699,1.0672,1.0651,1.0621,1.06,1.0584,1.0539,1.0514,1.0487,1.0446,1.0426,1.0416,1.0405,1.0396,1.0391,1.0394,1.0392,1.0379,1.0383,1.0386,1.0349,1.0349,1.0349,0,0,1.0811,1.0784,1.0772,1.0746,1.0706,1.0677,1.0674,1.0627,1.0607,1.0582,1.0547,1.0526,1.0481,1.0453,1.0433,1.0445,1.0419,1.0437,1.0458,1.0447,1.045,1.0452,1.0456,1.0458,1.0437,1.0437,1.0437,0,1.0838,1.0807,1.0769,1.0751,1.0731,1.069,1.0678,1.0653,1.0606,1.0593,1.0582,1.0523,1.0493,1.0465,1.0468,1.0454,1.0448,1.0443,1.0453,1.0455,1.0456,1.0459,1.046,1.0439,1.0439,1.0439,1.0439,0,1.0843,1.0822,1.0817,1.0773,1.0753,1.0738,1.0696,1.068,1.0656,1.0627,1.0601,1.0563,1.0527,1.0518,1.0494,1.0487,1.0481,1.0462,1.0442,1.0462,1.0464,1.0465,1.0443,1.0442,1.0441,1.0441,0,0,1.0895,1.0831,1.083,1.0809,1.0762,1.0744,1.0726,1.0691,1.0678,1.0646,1.0629,1.0591,1.0573,1.055,1.0522,1.0513,1.0524,1.0495,1.0493,1.0501,1.0513,1.0527,1.0529,1.0507,1.0507,1.0507,1.0516,0,1.0911,1.0878,1.0843,1.0821,1.0801,1.0761,1.0745,1.0713,1.0686,1.0663,1.0631,1.0605,1.0584,1.057,1.0559,1.0525,1.0526,1.0524,1.0489,1.0488,1.05,1.053,1.0546,1.0556,1.0517,1.0517,1.0517,0,1.0925,1.0896,1.0874,1.0828,1.0817,1.0804,1.0769,1.0748,1.0711,1.0691,1.0666,1.0636,1.0613,1.0596,1.0563,1.0563,1.0546,1.0527,1.0527,1.0522,1.0504,1.0526,1.0559,1.056,1.0518,1.0517,1.0517,0,1.0965,1.092,1.0901,1.0884,1.083,1.0822,1.0798,1.0761,1.0742,1.0711,1.0698,1.0664,1.0645,1.0619,1.058,1.0572,1.0551,1.0531,1.0533,1.0534,1.0531,1.0532,1.0561,1.0521,1.0521,1.0521,1.0521,0,1.0986,1.0973,1.0918,1.0906,1.089,1.0849,1.0834,1.0807,1.0774,1.0754,1.0717,1.07,1.065,1.0626,1.0595,1.0572,1.0564,1.0547,1.0539,1.055,1.0552,1.0538,1.0536,1.0521,1.0521,1.0521,1.0521,0,1.1028,1.0991,1.0967,1.0918,1.0905,1.0895,1.0853,1.0838,1.0809,1.0785,1.0777,1.0729,1.0699,1.0658,1.0615,1.0594,1.0575,1.0562,1.0588,1.0583,1.0588,1.0588,1.0609,1.061,1.057,1.057,1.0571,0,1.1044,1.1033,1.0983,1.0969,1.0947,1.0924,1.0905,1.0863,1.0844,1.08,1.0791,1.0759,1.073,1.0683,1.0644,1.061,1.0597,1.0606,1.0591,1.0603,1.0596,1.0597,1.0595,1.061,1.0611,1.0611,1.0612,0,1.1076,1.1058,1.1033,1.1001,1.0979,1.0952,1.0922,1.0912,1.0863,1.0844,1.0813,1.0792,1.0748,1.0715,1.0676,1.065,1.0623,1.0617,1.0616,1.0627,1.0642,1.0634,1.0598,1.0617,1.0616,1.0616,1.0616,1.0615,1.1105,1.1094,1.1057,1.103,1.1003,1.0976,1.0961,1.0929,1.0904,1.0866,1.0842,1.0812,1.0773,1.0719,1.0694,1.0669,1.0658,1.0656,1.0655,1.0656,1.0659,1.0647,1.0661,1.0661,1.0661,1.0661,1.0661,0,1.1135,1.1109,1.1085,1.1045,1.1023,1.1001,1.0966,1.0949,1.0924,1.0891,1.0864,1.0828,1.0796,1.0755,1.0719,1.0707,1.0694,1.0699,1.07,1.0694,1.0671,1.0676,1.0711,1.0711,1.0711,1.0711,1.0711,1.0711,1.1148,1.1128,1.1105,1.107,1.1044,1.1016,1.0998,1.0973,1.0946,1.0909,1.0882,1.0856,1.0819,1.078,1.0749,1.0738,1.0726,1.0736,1.072,1.07,1.0696,1.0691,1.0695,1.0734,1.0734,1.0745,1.0745,1.0745]}]]